| time (UTC) | temp F | wind direction | speed knots | gust knots | rain 1hr in | rain 24hr in | rain mn in | humidity % | barometer mb |
| 20260510203005 | 66 | 89 | 0.9 | 6.1 | 0.00 | 0.29 | 0.29 | 40 | 1025.3 |
| 20260510201508 | 65 | 144 | 1.7 | 7.8 | 0.00 | 0.29 | 0.29 | 43 | 1025.4 |
| 20260510200011 | 65 | 144 | 1.7 | 9.6 | 0.00 | 0.29 | 0.29 | 38 | 1025.7 |
| 20260510194519 | 66 | 110 | 5.2 | 8.7 | 0.00 | 0.29 | 0.29 | 42 | 1025.5 |
| 20260510193020 | 66 | 62 | 1.7 | 7.0 | 0.00 | 0.29 | 0.29 | 41 | 1025.7 |
| 20260510191506 | 65 | 126 | 1.7 | 6.1 | 0.00 | 0.29 | 0.29 | 46 | 1025.7 |
| 20260510190010 | 64 | 87 | 3.5 | 7.0 | 0.00 | 0.29 | 0.29 | 44 | 1026.0 |
| 20260510184519 | 64 | 170 | 2.6 | 6.1 | 0.00 | 0.29 | 0.29 | 50 | 1025.9 |
| 20260510183018 | 63 | 27 | 1.7 | 6.1 | 0.00 | 0.29 | 0.29 | 49 | 1026.1 |
| 20260510181524 | 63 | 43 | 2.6 | 6.1 | 0.00 | 0.29 | 0.29 | 53 | 1026.2 |
| 20260510180013 | 63 | 9 | 2.6 | 7.0 | 0.00 | 0.29 | 0.29 | 52 | 1026.2 |
| 20260510174514 | 62 | 9 | 2.6 | 7.0 | 0.00 | 0.29 | 0.29 | 58 | 1026.1 |
| 20260510173019 | 61 | 38 | 1.7 | 5.2 | 0.00 | 0.29 | 0.29 | 56 | 1026.1 |
| 20260510171520 | 59 | 55 | 1.7 | 8.7 | 0.00 | 0.29 | 0.29 | 62 | 1026.3 |
| 20260510170026 | 57 | 37 | 1.7 | 6.1 | 0.00 | 0.29 | 0.29 | 64 | 1026.3 |
| 20260510164532 | 57 | 42 | 1.7 | 6.1 | 0.00 | 0.29 | 0.29 | 63 | 1026.4 |
| 20260510163016 | 57 | 120 | 3.5 | 7.8 | 0.00 | 0.29 | 0.29 | 62 | 1026.3 |
| 20260510161519 | 56 | 115 | 3.5 | 7.8 | 0.00 | 0.29 | 0.29 | 62 | 1026.2 |
| 20260510160023 | 57 | 119 | 3.5 | 7.8 | 0.00 | 0.29 | 0.29 | 67 | 1025.7 |
| 20260510154531 | 55 | 80 | 2.6 | 7.0 | 0.00 | 0.29 | 0.29 | 73 | 1025.6 |
| 20260510153018 | 54 | 42 | 1.7 | 7.0 | 0.00 | 0.29 | 0.29 | 78 | 1025.5 |
| 20260510151519 | 53 | 98 | 2.6 | 7.8 | 0.00 | 0.29 | 0.29 | 82 | 1025.2 |
| 20260510150024 | 51 | 138 | 2.6 | 7.0 | 0.00 | 0.29 | 0.29 | 89 | 1025.0 |
| 20260510144508 | 50 | 46 | 0.9 | 3.5 | 0.01 | 0.29 | 0.29 | 92 | 1024.8 |
| 20260510143003 | 48 | 36 | 0.9 | 4.3 | 0.04 | 0.29 | 0.29 | 91 | 1024.9 |
| 20260510141503 | 47 | 33 | 2.6 | 7.0 | 0.06 | 0.29 | 0.29 | 90 | 1025.0 |
| 20260510140004 | 47 | 36 | 2.6 | 7.0 | 0.07 | 0.29 | 0.29 | 90 | 1024.8 |
| 20260510134508 | 47 | 81 | 0.9 | 7.0 | 0.08 | 0.28 | 0.28 | 90 | 1024.3 |
| 20260510133007 | 48 | 83 | 0.9 | 6.1 | 0.05 | 0.25 | 0.25 | 90 | 1024.6 |
| 20260510131504 | 48 | 340 | 2.6 | 10.4 | 0.05 | 0.23 | 0.23 | 90 | 1024.4 |
| 20260510130009 | 49 | 28 | 4.3 | 9.6 | 0.05 | 0.22 | 0.22 | 90 | 1024.5 |
| 20260510124504 | 49 | 15 | 4.3 | 9.6 | 0.08 | 0.20 | 0.20 | 90 | 1024.5 |
| 20260510123008 | 49 | 30 | 4.3 | 8.7 | 0.14 | 0.20 | 0.20 | 89 | 1024.1 |
| 20260510121512 | 49 | 36 | 4.3 | 8.7 | 0.18 | 0.18 | 0.18 | 88 | 1023.5 |
| 20260510120004 | 50 | 29 | 4.3 | 9.6 | 0.17 | 0.17 | 0.17 | 88 | 1023.2 |
| 20260510114516 | 50 | 20 | 3.5 | 6.1 | 0.12 | 0.12 | 0.12 | 86 | 1022.9 |
| 20260510113014 | 51 | 34 | 3.5 | 6.1 | 0.06 | 0.06 | 0.06 | 83 | 1022.6 |
| 20260510111513 | 52 | 49 | 2.6 | 7.0 | 0.00 | 0.00 | 0.00 | 79 | 1022.1 |
| 20260510110024 | 54 | 348 | 2.6 | 7.8 | 0.00 | 0.00 | 0.00 | 72 | 1021.8 |
| 20260510104504 | 55 | 21 | 4.3 | 10.4 | 0.00 | 0.00 | 0.00 | 60 | 1020.9 |
| 20260510103008 | 55 | 70 | 1.7 | 8.7 | 0.00 | 0.00 | 0.00 | 60 | 1019.9 |
| 20260510101512 | 55 | 123 | 4.3 | 10.4 | 0.00 | 0.00 | 0.00 | 60 | 1019.2 |
| 20260510100018 | 55 | 83 | 4.3 | 11.3 | 0.00 | 0.00 | 0.00 | 60 | 1019.2 |
| 20260510094529 | 55 | 28 | 2.6 | 7.0 | 0.00 | 0.00 | 0.00 | 60 | 1019.4 |
| 20260510093004 | 55 | 75 | 1.7 | 7.0 | 0.00 | 0.00 | 0.00 | 59 | 1019.4 |
| 20260510091512 | 56 | 44 | 2.6 | 8.7 | 0.00 | 0.00 | 0.00 | 59 | 1019.3 |
| 20260510090016 | 56 | 325 | 4.3 | 9.6 | 0.00 | 0.00 | 0.00 | 59 | 1019.2 |
| 20260510084521 | 56 | 32 | 4.3 | 10.4 | 0.00 | 0.00 | 0.00 | 59 | 1019.3 |
| 20260510083024 | 56 | 146 | 3.5 | 7.8 | 0.00 | 0.00 | 0.00 | 60 | 1019.5 |
| 20260510081508 | 56 | 158 | 2.6 | 7.8 | 0.00 | 0.00 | 0.00 | 61 | 1019.4 |
| 20260510080010 | 56 | 54 | 3.5 | 13.0 | 0.00 | 0.00 | 0.00 | 61 | 1019.4 |
| 20260510074518 | 56 | 44 | 3.5 | 11.3 | 0.00 | 0.00 | 0.00 | 1019.3 | |
| 20260510073024 | 57 | 16 | 3.5 | 12.2 | 0.00 | 0.00 | 0.00 | 61 | 1019.1 |
| 20260510071523 | 57 | 14 | 3.5 | 12.2 | 0.00 | 0.00 | 0.00 | 61 | 1019.0 |
| 20260510070008 | 57 | 31 | 4.3 | 12.2 | 0.00 | 0.00 | 0.00 | 60 | 1019.2 |
| 20260510064516 | 58 | 18 | 5.2 | 11.3 | 0.00 | 0.00 | 0.00 | 61 | 1019.1 |
| 20260510063022 | 58 | 341 | 5.2 | 12.2 | 0.00 | 0.00 | 0.00 | 62 | 1019.0 |
| 20260510061531 | 58 | 23 | 5.2 | 11.3 | 0.00 | 0.00 | 0.00 | 61 | 1018.3 |
| 20260510060042 | 58 | 46 | 7.0 | 10.4 | 0.00 | 0.00 | 0.00 | 61 | 1018.3 |
| 20260510054516 | 59 | 57 | 6.1 | 12.2 | 0.00 | 0.00 | 0.00 | 64 | 1018.2 |
| 20260510053003 | 59 | 98 | 2.6 | 13.0 | 0.00 | 0.00 | 0.00 | 65 | 1016.5 |
| 20260510051503 | 59 | 111 | 3.5 | 10.4 | 0.00 | 0.00 | 0.00 | 65 | 1015.9 |
| 20260510050009 | 59 | 100 | 3.5 | 10.4 | 0.00 | 0.00 | 0.00 | 65 | 1015.7 |
| 20260510044514 | 60 | 107 | 3.5 | 10.4 | 0.00 | 0.00 | 0.00 | 64 | 1015.3 |
| 20260510043018 | 60 | 61 | 3.5 | 13.0 | 0.00 | 0.00 | 0.00 | 63 | 1015.1 |
| 20260510041513 | 61 | 112 | 4.3 | 11.3 | 0.00 | 0.00 | 0.00 | 61 | 1014.6 |
| 20260510040008 | 61 | 107 | 2.6 | 9.6 | 0.00 | 0.00 | 0.00 | 59 | 1014.0 |
| 20260510034509 | 62 | 71 | 2.6 | 7.0 | 0.00 | 0.00 | 0.00 | 58 | 1014.2 |
| 20260510033012 | 63 | 67 | 2.6 | 7.8 | 0.00 | 0.00 | 0.00 | 56 | 1013.8 |
| 20260510031518 | 64 | 111 | 3.5 | 9.6 | 0.00 | 0.00 | 0.00 | 54 | 1013.1 |
| 20260510030021 | 65 | 33 | 3.5 | 9.6 | 0.00 | 0.00 | 0.00 | 52 | 1012.9 |
| 20260510024510 | 65 | 59 | 4.3 | 8.7 | 0.00 | 0.00 | 0.00 | 51 | 1012.5 |
| 20260510023030 | 66 | 59 | 4.3 | 12.2 | 0.00 | 0.00 | 0.00 | 49 | 1012.0 |
| 20260510021520 | 67 | 42 | 5.2 | 12.2 | 0.00 | 0.00 | 0.00 | 48 | 1011.6 |
| 20260510020022 | 69 | 67 | 5.2 | 14.8 | 0.00 | 0.00 | 0.00 | 46 | 1011.4 |
| 20260510014508 | 71 | 311 | 6.1 | 13.9 | 0.00 | 0.00 | 0.00 | 43 | 1010.9 |
| 20260510013014 | 75 | 26 | 7.8 | 12.2 | 0.00 | 0.00 | 0.00 | 40 | 1010.4 |
| 20260510011521 | 78 | 10 | 5.2 | 10.4 | 0.00 | 0.00 | 0.00 | 29 | 1009.8 |
| 20260510010026 | 80 | 349 | 4.3 | 8.7 | 0.00 | 0.00 | 0.00 | 25 | 1009.2 |
| 20260510004522 | 82 | 309 | 6.1 | 11.3 | 0.00 | 0.00 | 0.00 | 24 | 1008.9 |
| 20260510003008 | 83 | 341 | 7.0 | 12.2 | 0.00 | 0.00 | 0.00 | 24 | 1008.8 |
| 20260510001517 | 83 | 340 | 6.1 | 13.0 | 0.00 | 0.00 | 0.00 | 23 | 1008.8 |
| 20260510000020 | 85 | 329 | 7.0 | 12.2 | 0.00 | 0.00 | 0.00 | 22 | 1008.8 |
| 20260509234523 | 85 | 351 | 8.7 | 15.6 | 0.00 | 0.00 | 0.00 | 22 | 1008.7 |
| 20260509233028 | 86 | 44 | 7.8 | 14.8 | 0.00 | 0.00 | 0.00 | 21 | 1008.7 |
| 20260509231513 | 87 | 9 | 7.0 | 13.9 | 0.00 | 0.00 | 0.00 | 21 | 1008.3 |
| 20260509230016 | 87 | 11 | 4.3 | 10.4 | 0.00 | 0.00 | 0.00 | 21 | 1008.1 |
| 20260509224522 | 88 | 335 | 6.1 | 9.6 | 0.00 | 0.00 | 0.00 | 21 | 1008.1 |
| 20260509223028 | 88 | 9 | 7.0 | 9.6 | 0.00 | 0.00 | 0.00 | 21 | 1008.2 |
| 20260509221531 | 88 | 22 | 7.0 | 13.9 | 0.00 | 0.00 | 0.00 | 20 | 1008.2 |
| 20260509220016 | 88 | 352 | 4.3 | 10.4 | 0.00 | 0.00 | 0.00 | 20 | 1008.2 |
| 20260509214520 | 88 | 346 | 5.2 | 9.6 | 0.00 | 0.00 | 0.00 | 22 | 1008.1 |
| 20260509213026 | 89 | 286 | 3.5 | 7.8 | 0.00 | 0.00 | 0.00 | 21 | 1008.2 |
| 20260509211549 | 89 | 321 | 4.3 | 10.4 | 0.00 | 0.00 | 0.00 | 21 | 1008.2 |
| 20260509210026 | 89 | 294 | 6.1 | 9.6 | 0.00 | 0.00 | 0.00 | 21 | 1008.3 |
| 20260509204503 | 90 | 306 | 3.5 | 11.3 | 0.00 | 0.00 | 0.00 | 23 | 1008.3 |